sat.trackr.live / text

‹ back to catalog

STARLINK-32638

NORAD 62424 · 2024-249R

PAYLOAD ACTIVE UNKNOWN

§ Identity

Operator
Country
US
Launch date
2024-12-23
Launch site
AFETR
Launch vehicle
Mass (kg)
RCS (m²)

Purposes: comms

External: N2YO · Heavens-Above · Gunter

§ Orbital elements

Epoch: 2026-09-21T13:12:20.043936Z

Period
94.27 min
Inclination
43.0030°
Eccentricity
0.0001735
Mean motion
15.27586143 rev/d
Perigee alt
481.8 km
Apogee alt
484.2 km
Semi-major
6,861.2 km
B*
4.6031e-4
RAAN
299.5848°
Arg perigee
266.6657°
Mean anomaly
93.3996°
Rev number
9,763

§ Raw data

STARLINK-326381 62424U 24249R   26264.55023199  .00012428  00000+0  46031-3 0  99962 62424  43.0030 299.5848 0001735 266.6657  93.3996 15.27586143 97635

JSON: /api/v1/satellites/62424 · /tle

For live sub-satellite position, see the globe view (requires WebGL).

§ Visibility from observer

Set your observer location to see the next 7 days of passes ≥ 10°. The values pass through the URL so the page stays shareable.

No JS? Fill the form by hand. The geolocation button needs JavaScript.